Regional Weather Roundup
Issued by NWS

Home | Current Version | Previous Version | Text Only | Print | Product List | Glossary On
Versions: 1 2 3 4 5 6 7 8 9 10 11 12 13 14 15 16 17 18 19 20 21 22 23 24 25 26 27 28 29 30 31 32 33 34 35 36 37 38 39 40 41 42 43 44 45 46 47 48 49 50
000
ASUS43 KLSX 181107
RWRMO

WEATHER SUMMARY FOR MISSOURI
NATIONAL WEATHER SERVICE SPRINGFIELD MO
600 AM CDT WED OCT 18 2017

NOTE: "FAIR" INDICATES FEW OR NO CLOUDS BELOW 12,000 FEET WITH NO
       SIGNIFICANT WEATHER AND/OR OBSTRUCTIONS TO VISIBILITY.
       CURRENT SKY AND/OR WEATHER CONDITIONS ARE NOT AVAILABLE FOR
       CHILLICOTHE AND FARMINGTON.

MOZ001>031-035>038-043-044-053-054-181200-
...NORTHERN AND WESTERN MISSOURI...

CITY           SKY/WX    TMP DP  RH WIND       PRES   REMARKS
KANSAS CTY INT CLEAR     53  45  74 S12       30.05S
KANSAS C DTWN  CLEAR     55  46  71 S9        30.06S
LEE`S SUMMIT   CLEAR     51  45  79 S13       30.08S
ST JOSEPH      CLEAR     50  46  86 S5        30.03S
CHILLICOTHE      N/A     50  45  83 S5        30.08S
KIRKSVILLE     CLEAR     48  44  86 S7        30.09F

$$
MOZ066>068-077>081-088>096-101>105-181200-
...SOUTHWEST MISSOURI...

CITY           SKY/WX    TMP DP  RH WIND       PRES   REMARKS
SPRINGFIELD    CLEAR     47  41  80 SE13      30.15S
JOPLIN         CLEAR     49  43  80 S9        30.13R
BRANSON        CLEAR     41  39  93 CALM      30.19S

$$
MOZ032>034-039>042-045>050-055>058-069>072-181200-
...CENTRAL MISSOURI...

CITY           SKY/WX    TMP DP  RH WIND       PRES   REMARKS
COLUMBIA       PTCLDY    46  41  82 S8        30.15R
JEFFERSON CITY PTCLDY    46  39  76 SE7       30.16R
ROLLA          CLEAR     50  40  68 S9        30.18R
SEDALIA        CLEAR     49  44  83 S8        30.13R
WHITEMAN AFB   CLEAR     47  42  82 S8        30.07R
WARRENSBURG    CLEAR     48  43  81 S9        30.10S
OSAGE BEACH    CLEAR     46  40  79 SE6       30.16S

$$
MOZ051-052-059>065-181200-
...EAST CENTRAL MISSOURI...

CITY           SKY/WX    TMP DP  RH WIND       PRES   REMARKS
ST LOUIS INTL  PTCLDY    50  43  77 S6        30.20R
SPIRIT OF STL  CLEAR     41  40  96 CALM      30.19R
ST CHARLES     CLEAR     42  40  92 E7        30.19R

$$
MOZ072>076-082>087-097>100-106>115-181200-
...SOUTH CENTRAL AND SOUTHEAST MISSOURI...

CITY           SKY/WX    TMP DP  RH WIND       PRES   REMARKS
CAPE GIRARDEAU CLEAR     40  39  97 CALM      30.23R
FARMINGTON     CLEAR     42  38  85 CALM      30.21S
POPLAR BLUFF   CLEAR     37  36  96 CALM      30.23R
WEST PLAINS    CLEAR     47  38  71 S3        30.21R

$$



USA.gov is the U.S. government's official web portal to all federal, state and local government web resources and services.